Home   Weather   Laatzen   Past weeks

Flag for Germany Past Weather in Laatzen, Lower Saxony, Germany — Yesterday and Last 2 Weeks

Now
23 °F

Fog.


Feels Like: 23 °F
Forecast: 21 / 34 °F
Wind: 2 mph from Northeast

Location: Hannover

Current Time: Dec 4, 2016 at 5:10:38 am

Latest Report: Dec 4, 2016 at 4:20 am


Visibility: 4 mi

Pressure: 30.36 "Hg

Humidity: 93%

Dew Point: 21 °F

Location of LaatzenLocation

Past Weather in Laatzen — Graph

°F

Laatzen Temperature Yesterday

Maximum temperature yesterday: 43 °F (at 1:20 pm)
Minimum temperature yesterday: 23 °F (at 11:50 pm)
Average temperature yesterday: 31 °F

High & Low Weather Summary for the Past Weeks

 TemperatureHumidityPressure
High59 °F (Nov 21, 10:50 am)100% (Nov 23, 8:20 am)30.60 "Hg (Nov 23, 8:20 am)
Low18 °F (Nov 29, 4:50 am)53% (Dec 2, 12:50 pm)29.39 "Hg (Nov 20, 1:20 pm)
Average39 °F83%30.09 "Hg
* Reported Nov 19 3:20 am — Dec 4 3:50 am, Laatzen, Weather by CustomWeather, © 2016

Note: Actual official high and low records may vary slightly from our data, if they occured in-between our weather recording intervals... More about our weather records

Advertising

Laatzen Weather History for the Previous 24 Hours

Scroll right to see more
 ConditionsComfort  
Time TempWeatherWind HumidityBarometerVisibility
3:50 am
Sun, Dec 4
23 °FIce fog.2 mph93%30.36 "Hg3 mi
3:20 am23 °FCold.1 mph93%30.36 "Hg2 mi
2:50 am25 °FIce fog.1 mph93%30.36 "Hg1 mi
2:20 am25 °FFog.1 mph93%30.36 "Hg3 mi
1:50 am25 °FCold.2 mph93%30.36 "Hg1 mi
1:20 am25 °FCold.2 mph100%30.36 "Hg1 mi
12:50 am25 °FIce fog.1 mph100%30.36 "Hg0 mi
12:20 am23 °FCold.1 mph93%30.36 "Hg1 mi
11:50 pm
Sat, Dec 3
23 °FCold.1 mph100%30.36 "Hg1 mi
11:20 pm25 °FCold.1 mph100%30.36 "Hg1 mi
10:50 pm27 °FChilly.No wind93%30.36 "Hg1 mi
10:20 pm27 °FChilly.1 mph93%30.36 "Hg1 mi
9:50 pm27 °FIce fog.No wind100%30.36 "Hg1 mi
9:20 pm27 °FIce fog.No wind100%30.36 "Hg1 mi
8:50 pm27 °FIce fog.1 mph100%30.36 "Hg1 mi
8:20 pm27 °FIce fog.1 mph100%30.33 "Hg1 mi
7:50 pm28 °FChilly.No wind93%30.33 "Hg1 mi
7:20 pm30 °FChilly.No wind100%30.33 "Hg4 mi
6:50 pm30 °FFog.1 mph93%30.33 "Hg4 mi
6:20 pm32 °FFog.No wind93%30.33 "HgN/A
5:50 pm30 °FFog.No wind100%30.33 "HgN/A
5:20 pm32 °FFog.1 mph93%30.33 "HgN/A
4:50 pm34 °FFog.1 mph93%30.30 "HgN/A
4:20 pm36 °FClear.1 mph87%30.30 "Hg10 mi
3:50 pm37 °FSunny.2 mph81%30.30 "Hg10 mi
3:20 pm41 °FScattered clouds.2 mph70%30.30 "HgN/A
2:50 pm41 °FScattered clouds.1 mph70%30.30 "HgN/A
2:20 pm41 °FQuite cool.1 mph76%30.30 "HgN/A
1:50 pm41 °FPassing clouds.2 mph76%30.30 "HgN/A
1:20 pm43 °FPassing clouds.2 mph66%30.30 "HgN/A
12:50 pm41 °FPassing clouds.2 mph70%30.30 "HgN/A
12:20 pm41 °FPassing clouds.2 mph70%30.30 "HgN/A
11:50 am39 °FPassing clouds.1 mph75%30.30 "HgN/A
11:20 am37 °FPassing clouds.1 mph81%30.30 "HgN/A
10:50 am36 °FPassing clouds.2 mph81%30.30 "HgN/A
10:20 am36 °FPassing clouds.1 mph81%30.30 "HgN/A
9:50 am32 °FSunny.No wind87%30.30 "Hg10 mi
9:20 am27 °FFog.1 mph93%30.30 "Hg6 mi
8:50 am25 °FFog.2 mph100%30.30 "Hg4 mi
8:20 am25 °FIce fog.1 mph93%30.27 "Hg1 mi
7:50 am25 °FIce fog.No wind100%30.27 "Hg1 mi
7:20 am27 °FIce fog.2 mph93%30.27 "Hg1 mi
6:50 am27 °FIce fog.No wind93%30.27 "Hg1 mi
6:20 am27 °FIce fog.No wind93%30.27 "Hg1 mi
5:50 am27 °FIce fog.1 mph100%30.24 "Hg2 mi
5:20 am27 °FFog.2 mph93%30.24 "Hg4 mi
Weather by CustomWeather, © 2016

See weather overviewHow to use our weather pages